Kiana, AK

2:59 PM AKDT on April 20, 2018 (GMT -0800)
Baker Memorial

Weather History for PAIK - March, 2014

Change the Weather History Date:

Tuesday, March 11, 2014

  Actual Average (PASK) Record (PASK)
Temperature  
Mean Temperature 2 °F -  
Max Temperature 3 °F 5 °F 24 °F (2004)
Min Temperature -4 °F -4 °F -38 °F (1999)
Degree Days  
Heating Degree Days 62    
Moisture  
Dew Point -5 °F    
Average Humidity 71    
Maximum Humidity 85    
Minimum Humidity 54    
Precipitation  
Precipitation 0.00 in - - ()
Sea Level Pressure  
Sea Level Pressure 29.32 in    
Wind  
Wind Speed 7 mph (NNE)    
Max Wind Speed 14 mph    
Max Gust Speed -    
Visibility 6 miles    
Events Snow    
Averages and records for this station are not official NWS values.
T = Trace of Precipitation, MM = Missing Value Source: NWS Daily Summary

Daily Weather History Graph

Daily Weather History Graph

Search for Another Location

Airport or City:

Astronomy

Mar. 11, 2014 Rise Set
Actual Time 9:16 AM AKDT 8:28 PM AKDT
Civil Twilight 8:23 AM AKDT 9:21 PM AKDT
Nautical Twilight 7:21 AM AKDT 10:24 PM AKDT
Astronomical Twilight 6:11 AM AKDT 11:35 PM AKDT
Moon 2:40 PM AKDT (3/11) 7:57 AM AKDT (3/11)
Length of Visible Light 12h 57m
Length of Day
11h 11m
Waxing Gibbous, 79% of the Moon is Illuminated
Mar 11
Waxing Gibbous
Mar 16
Full
Mar 23
Last Quarter
Mar 30
New
Apr 7
First Quarter

Hourly Weather History & Observations

Time (AKDT) Temp. Windchill Dew Point Humidity Pressure Visibility Wind Dir Wind Speed Gust Speed Precip Events Conditions
12:01 AM -4.0 °F -22.1 °F -15.0 °F 59% 29.58 in 10.0 mi North 11.5 mph - N/A   Clear
1:01 AM -2.9 °F -22.4 °F -15.0 °F 56% 29.56 in 10.0 mi NNW 13.8 mph - N/A   Clear
2:01 AM -4.0 °F -22.1 °F -15.0 °F 59% 29.53 in 10.0 mi North 11.5 mph - N/A   Clear
3:01 AM -4.0 °F -20.2 °F -15.0 °F 59% 29.52 in 10.0 mi North 9.2 mph - N/A   Clear
4:01 AM -2.0 °F -19.6 °F -15.0 °F 54% 29.49 in 10.0 mi North 11.5 mph - N/A   Scattered Clouds
5:01 AM -2.9 °F -21.6 °F -14.1 °F 59% 29.46 in 10.0 mi North 12.7 mph - N/A   Overcast
6:01 AM -2.0 °F -21.2 °F -13.0 °F 60% 29.44 in 10.0 mi North 13.8 mph - N/A   Overcast
7:01 AM -0.9 °F -17.4 °F -13.0 °F 57% 29.42 in 10.0 mi North 10.4 mph - N/A   Overcast
8:01 AM -2.9 °F -18.8 °F -13.0 °F 62% 29.39 in 10.0 mi North 9.2 mph - N/A   Scattered Clouds
9:01 AM -2.9 °F -13.3 °F -13.0 °F 62% 29.39 in 10.0 mi NNE 4.6 mph - N/A   Overcast
10:01 AM -2.9 °F -16.5 °F -11.9 °F 65% 29.39 in 10.0 mi NE 6.9 mph - N/A   Mostly Cloudy
11:01 AM -0.9 °F -11.0 °F -11.0 °F 62% 29.39 in 9.0 mi East 4.6 mph - 0.00 in Snow Light Snow
12:01 PM -0.0 °F -9.9 °F -9.9 °F 63% 29.38 in 10.0 mi ENE 4.6 mph - 0.00 in   Overcast
1:01 PM 1.9 °F -5.6 °F -8.0 °F 63% 29.38 in 3.0 mi Variable 3.5 mph - 0.00 in Snow Light Snow
1:16 PM 3.2 °F -9.1 °F -5.8 °F 66% 29.24 in 2.5 mi NNE 6.9 mph - 0.00 in Snow Light Snow
1:23 PM 3.2 °F -7.8 °F -5.8 °F 66% 29.24 in 3.0 mi NNE 5.8 mph - 0.00 in Snow Light Snow
1:38 PM 3.2 °F -6.2 °F -4.0 °F 72% 29.24 in 2.0 mi NNE 4.6 mph - 0.00 in Snow Light Snow
2:01 PM 3.2 °F -6.2 °F -4.0 °F 72% 29.24 in 3.0 mi ENE 4.6 mph - 0.00 in Snow Light Snow
2:45 PM 3.2 °F -7.8 °F -2.2 °F 78% 29.23 in 4.0 mi NE 5.8 mph - 0.00 in Snow Light Snow
3:01 PM 5.0 °F -2.1 °F -0.4 °F 78% 29.23 in 2.5 mi NE 3.5 mph - 0.00 in Snow Light Snow
3:20 PM 5.0 °F -4.1 °F -0.4 °F 78% 29.22 in 6.0 mi ENE 4.6 mph - 0.00 in Snow Light Snow
3:53 PM 5.0 °F -2.1 °F -0.4 °F 78% 29.22 in 5.0 mi ENE 3.5 mph - 0.00 in Snow Light Snow
4:01 PM 5.0 °F -4.1 °F -0.4 °F 78% 29.22 in 7.0 mi ENE 4.6 mph - 0.00 in Snow Light Snow
4:49 PM 6.8 °F - -0.4 °F 72% 29.21 in 2.0 mi Calm Calm - 0.00 in Snow Light Snow
5:01 PM 6.8 °F - 1.4 °F 79% 29.21 in 3.0 mi Calm Calm - 0.00 in Snow Light Snow
6:01 PM 8.1 °F - 1.0 °F 73% 29.34 in 3.0 mi Calm Calm - 0.00 in Snow Light Snow
6:08 PM 8.6 °F - 1.4 °F 73% 29.21 in 2.0 mi Calm Calm - 0.00 in Snow Light Snow
6:15 PM 8.6 °F - 1.4 °F 73% 29.20 in 3.0 mi Calm Calm - 0.00 in Snow Light Snow
6:39 PM 8.6 °F - 1.4 °F 73% 29.21 in 7.0 mi Calm Calm - 0.00 in Snow Light Snow
7:01 PM 9.0 °F - 1.9 °F 73% 29.34 in 7.0 mi Calm Calm - 0.00 in Snow Light Snow
8:01 PM 6.1 °F - 1.0 °F 80% 29.34 in 9.0 mi Calm Calm - 0.00 in Snow Light Snow
9:01 PM 5.0 °F -2.1 °F -0.9 °F 76% 29.35 in 9.0 mi WNW 3.5 mph - 0.00 in Snow Light Snow
9:52 PM 5.0 °F - -0.4 °F 78% 29.22 in 2.5 mi Calm Calm - 0.00 in Snow Light Snow
10:01 PM 3.2 °F - -0.4 °F 85% 29.22 in 3.0 mi Calm Calm - 0.00 in Snow Light Snow
10:39 PM 3.2 °F -4.2 °F -0.4 °F 85% 29.22 in 9.0 mi SSW 3.5 mph - 0.00 in Snow Light Snow
11:01 PM 3.0 °F - -0.9 °F 84% 29.36 in 5.0 mi Calm Calm - 0.00 in Snow Light Snow
11:41 PM 3.2 °F - -0.4 °F 85% 29.22 in 2.5 mi Calm Calm - 0.00 in Snow Light Snow
11:49 PM 3.2 °F - -0.4 °F 85% 29.23 in 4.0 mi Calm Calm - 0.00 in Snow Light Snow